Location: Newark
(6.1731°S, 35.7419°E)
Time: 16:55:56
(UTC+00:00)

A-11 Canister half - Visible Passes

Search period start: 21 February 2020 00:00
Search period end: 02 March 2020 00:00
Orbit: 1524 x 1684 km, 47.3° (Epoch: 20 February)

Date Brightness Start Highest point End Pass type
(mag) Time Alt. Az. Time Alt. Az. Time Alt. Az.
21 Feb 11.3 02:17:31 10° S 02:24:00 19° SE 02:30:21 10° E visible
21 Feb 9.1 17:14:10 10° NW 17:23:44 79° SW 17:33:43 10° SE visible
21 Feb 11.1 19:23:54 10° WSW 19:29:35 17° SW 19:35:23 10° S visible
22 Feb 11.3 01:56:10 10° S 02:02:15 17° SE 02:08:12 10° ESE visible
22 Feb 9.1 16:52:32 10° NW 17:02:06 84° SW 17:12:04 10° SE visible
22 Feb 11.1 19:01:45 10° W 19:07:49 18° SW 19:14:03 10° S visible
23 Feb 11.3 01:34:50 10° S 01:40:29 16° SE 01:46:02 10° ESE visible
23 Feb 9.1 16:30:55 10° NW 16:40:28 89° SW 16:50:24 10° SE visible
23 Feb 11.0 18:39:39 10° W 18:46:04 19° SW 18:52:40 10° S visible
24 Feb 11.4 01:13:34 10° S 01:18:43 15° SE 01:23:46 10° ESE visible
24 Feb 9.5 03:14:41 10° SSW 03:24:45 71° SE 03:34:25 10° NE visible
24 Feb 9.1 16:09:18 10° NW 16:18:48 86° NE 16:28:43 10° SE visible
24 Feb 11.0 18:17:37 10° W 18:24:20 21° SW 18:31:15 10° S visible
25 Feb 11.4 00:52:22 10° S 00:56:56 14° SE 01:01:26 10° ESE visible
25 Feb 9.5 02:53:03 10° SSW 03:03:05 67° SE 03:12:44 10° NE visible
25 Feb 11.0 17:55:35 10° W 18:02:37 22° SW 18:09:50 10° S visible
26 Feb 11.4 00:31:16 10° SSE 00:35:09 13° SE 00:38:59 10° ESE visible
26 Feb 9.6 02:31:26 10° SSW 02:41:25 63° SE 02:51:03 10° NE visible
26 Feb 11.0 17:33:37 10° W 17:40:53 24° SW 17:48:23 10° S visible
27 Feb 11.4 00:10:20 10° SSE 00:13:21 11° SE 00:16:19 10° SE visible
27 Feb 9.6 02:09:48 10° SSW 02:19:44 59° SE 02:29:20 10° NE visible
27 Feb 10.9 17:11:40 10° W 17:19:10 26° SW 17:26:55 10° S visible
27 Feb 11.4 23:49:51 10° SSE 23:51:32 10° SE 23:53:13 10° SE visible
28 Feb 9.7 01:48:11 10° SSW 01:58:04 55° SE 02:07:36 10° NE visible
28 Feb 10.9 16:49:45 10° W 16:57:28 27° SW 17:05:26 10° S visible
29 Feb 9.7 01:26:36 10° SSW 01:36:23 51° SE 01:45:52 10° ENE visible
29 Feb 10.9 16:27:51 10° WNW 16:35:45 29° SW 16:43:57 10° SSE visible
01 Mar 9.8 01:05:26 11° SSW 01:14:42 48° SE 01:24:06 10° ENE visible
01 Mar 9.6 03:10:33 10° WSW 03:19:36 38° NW 03:28:25 10° NNE visible
01 Mar 10.8 16:05:58 10° WNW 16:14:04 31° SW 16:22:27 10° SSE visible
